Location: Poughquag
(41.6090°N, 73.6820°W)
Time: 12:11:39
(UTC-04:00)

RS-44 - Visible Passes

Search period start: 26 May 2024 00:00
Search period end: 05 June 2024 00:00
Orbit: 1174 x 1511 km, 82.5° (Epoch: 25 May)

Date Brightness Start Highest point End Pass type
(mag) Time Alt. Az. Time Alt. Az. Time Alt. Az.
26 May ? 01:56:02 10° NE 01:58:47 12° ENE 02:01:32 10° E visible
26 May ? 03:46:19 10° N 03:53:32 74° E 04:01:03 10° SSE visible
27 May ? 02:17:56 10° NNE 02:23:09 21° ENE 02:28:29 10° ESE visible
27 May ? 04:10:05 10° NNW 04:17:16 72° W 04:24:45 10° S visible
28 May ? 02:40:54 10° N 02:47:20 33° ENE 02:53:57 10° SE visible
28 May ? 04:34:05 10° NNW 04:40:51 45° W 04:47:55 10° SSW visible
29 May ? 03:04:14 10° N 03:11:18 53° ENE 03:18:40 10° SSE visible
30 May ? 01:36:50 10° NNE 01:40:34 14° ENE 01:44:21 10° E visible
30 May ? 03:27:51 10° N 03:35:08 83° E 03:42:48 10° S visible
31 May ? 01:59:13 10° NNE 02:04:53 24° ENE 02:10:44 10° ESE visible
31 May ? 03:51:40 10° NNW 03:58:50 64° W 04:06:23 10° S visible
01 Jun ? 02:22:18 10° N 02:29:00 38° ENE 02:35:59 10° SE visible
01 Jun ? 04:15:44 10° NNW 04:22:23 40° W 04:29:23 10° SSW visible
02 Jun ? 02:45:43 10° N 02:52:56 60° E 03:00:33 10° SSE visible
02 Jun ? 04:40:10 10° NNW 04:45:50 25° W 04:51:43 10° SW visible
03 Jun ? 01:17:51 10° NNE 01:22:21 17° ENE 01:26:57 10° ESE visible
03 Jun ? 03:09:22 10° N 03:16:44 88° W 03:23:57 12° S visible
04 Jun ? 01:40:31 10° NNE 01:46:37 27° ENE 01:52:56 10° SE visible
04 Jun ? 03:33:15 10° NNW 03:40:24 57° W 03:46:59 14° SSW visible
